User: anonymous   Login
Location: Peebles
(55.6412°N, 3.1714°W)
Time: 10:04:33
(UTC+01:00)
Language:

METEOR 2-8 DEB - Orbit

View from above orbital plane
View from above orbital plane
View from above satellite
View from above satellite

Ground track
Ground track

The orbit data is extracted from the following two-line orbital elements,

1 36340U 82025AA  22175.92550922  .00002057  00000-0  88455-3 0  9991
2 36340  82.5268 247.0632 0029211 136.2107 224.1399 14.24054555454916
Epoch (UTC): 24 June 2022 22:12:43
Eccentricity: 0.0029211
inclination: 82.5268°
perigee height: 790 km
apogee height: 832 km
right ascension of ascending node: 247.0632°
argument of perigee: 136.2107°
revolutions per day: 14.24054555
mean anomaly at epoch: 224.1399°
orbit number at epoch: 45491

The dashed part of the orbit path shows where the satellite is in the earth's shadow,  

DLR